2017-081B

Last updated on Dec. 18, 2017, 12:15 a.m. UTC

1 43064U 17081B   17351.85228049  .01528903  12011-4  48463-3 0  9994
2 43064  51.6442 203.2923 0026489  69.9593 290.4332 16.24554778    82

Satellite is not in orbit.